DateTimeUTC,F1_A11,F1_S11,BsB_S11,BsG_S11,BsR_S11,BbsB_S11,BbsG_S11,BbsR_S11,BaB_A11,BaG_A11,BaR_A11,Tu_S11,T_S11,Uu_S11,U_S11,P_S11,T1_A11
2021-07-20T05:00:00Z,00000200,20000000,,,,,,,-000.09,0000.27,-000.06,18.9,25.4,16.5,11.1,0672.1,31.0
2021-07-20T05:01:00Z,00000200,20000000,,,,,,,0000.14,-000.17,-000.04,18.9,25.4,16.5,11.1,0672.1,31.1
2021-07-20T05:02:00Z,00000200,20000000,,,,,,,-000.29,-000.28,-000.14,18.9,25.4,16.5,11.1,0672.0,31.0
2021-07-20T05:03:00Z,00000200,60000000,,,,,,,0000.43,0000.48,0000.11,18.9,25.4,16.5,11.1,0672.0,31.1
2021-07-20T05:04:00Z,00000200,40000000,0001.21,0000.74,0000.78,0000.47,0000.40,0000.09,0000.12,0000.08,0000.20,18.9,25.2,16.5,11.3,0673.0,31.1
2021-07-20T05:05:00Z,00000200,00000000,0001.63,0000.63,0000.47,0000.14,0000.33,0000.09,0000.10,0000.35,0000.30,19.0,25.2,16.3,11.2,0673.0,31.1
2021-07-20T05:06:00Z,00000200,00000000,0001.32,0000.60,0000.36,-000.02,0000.30,0000.57,0000.21,-000.09,0000.02,19.0,25.2,16.5,11.3,0673.0,31.1
2021-07-20T05:07:00Z,00000200,00000000,0001.17,0000.67,0000.40,-000.31,0000.38,0000.22,0000.34,-000.04,0000.04,19.0,25.2,16.4,11.2,0673.0,31.1
2021-07-20T05:08:00Z,00000200,00000000,0001.32,0000.54,0000.53,0000.58,0000.41,0000.37,0000.19,0000.32,0000.15,19.0,25.1,16.4,11.2,0673.0,31.1
2021-07-20T05:09:00Z,00000200,00000000,0001.09,0000.81,0000.35,0000.38,0000.17,0000.13,-000.08,0000.33,-000.08,19.0,25.1,16.3,11.2,0673.0,31.0
2021-07-20T05:10:00Z,00000200,00000000,0000.44,0000.44,0000.41,-000.34,0000.23,0000.11,0000.30,0000.01,0000.16,19.0,25.1,16.3,11.2,0673.0,31.1
2021-07-20T05:11:00Z,00000200,00000000,0000.96,0000.46,0000.31,0000.34,0000.31,0000.07,0000.01,0000.02,0000.30,19.0,25.1,16.2,11.1,0673.0,31.0
2021-07-20T05:12:00Z,00000200,00000000,0001.65,0000.58,0000.38,0000.36,0000.18,0000.00,0000.49,0000.13,0000.07,19.0,25.1,16.2,11.1,0673.0,31.0
2021-07-20T05:13:00Z,00000200,00000000,0000.60,0000.89,0000.45,0000.35,0000.04,0000.15,-000.18,0000.24,0000.22,19.0,25.1,16.1,11.1,0673.0,31.1
2021-07-20T05:14:00Z,00000200,00000000,0001.37,0000.79,0000.51,0000.66,0000.01,0000.21,0000.31,0000.42,-000.02,19.0,25.1,16.1,11.1,0673.0,31.0
2021-07-20T05:15:00Z,00000200,00000000,0000.77,0000.46,0000.40,0000.06,0000.08,0000.43,-000.13,0000.11,0000.18,19.0,25.1,16.1,11.1,0673.0,31.1
2021-07-20T05:16:00Z,00000200,00000000,0001.51,0000.52,0000.16,0000.24,0000.20,-000.01,0000.56,0000.07,0000.18,19.0,25.1,16.2,11.1,0673.0,31.1
2021-07-20T05:17:00Z,00000200,00000000,0001.08,0000.47,0000.21,-000.39,0000.04,0000.06,0000.14,-000.10,-000.06,19.0,25.1,16.1,11.1,0673.0,31.1
2021-07-20T05:18:00Z,00000200,00000000,0001.30,0000.51,0000.40,0000.79,0000.12,0000.07,0000.21,0000.55,0000.07,19.0,25.1,16.0,11.1,0673.0,31.0
2021-07-20T05:19:00Z,00000200,00000000,0000.48,0000.81,0000.58,-000.56,0000.22,0000.14,-000.01,0000.19,0000.41,19.0,25.1,16.1,11.1,0673.0,31.1
2021-07-20T05:20:00Z,00000200,00000000,0000.60,0000.45,0000.12,0000.52,0000.10,0000.10,0000.43,-000.02,0000.19,19.0,25.1,16.1,11.1,0673.0,31.1
2021-07-20T05:21:00Z,00000200,00000000,0001.56,0000.61,0000.31,0000.45,0000.25,0000.27,0000.10,0000.46,0000.19,19.0,25.1,16.1,11.1,0672.9,31.1
2021-07-20T05:22:00Z,00000200,00000000,0000.87,0000.71,0000.70,0000.09,0000.09,0000.28,0000.44,0000.12,0000.20,19.0,25.1,16.1,11.1,0673.0,31.1
2021-07-20T05:23:00Z,00000200,00000000,0001.44,0000.95,0000.47,-000.13,0000.26,0000.05,0000.06,-000.08,0000.11,19.0,25.1,16.0,11.1,0672.9,31.0
2021-07-20T05:24:00Z,00000200,00000000,0001.16,0000.79,0000.35,0000.05,0000.25,0000.21,0000.59,0000.51,0000.20,19.0,25.1,16.2,11.2,0672.9,31.0
2021-07-20T05:25:00Z,00000200,00000000,0000.95,0001.04,0000.55,0000.64,0000.17,0000.33,0000.29,0000.28,0000.20,19.0,25.1,16.1,11.1,0673.0,31.1
2021-07-20T05:26:00Z,00000200,00000000,0000.99,0000.58,0000.50,0000.94,0000.15,-000.05,0000.06,0000.31,-000.09,19.0,25.1,16.2,11.1,0672.9,31.1
2021-07-20T05:27:00Z,00000200,00000000,0000.82,0000.66,0000.63,0000.34,0000.32,0000.10,0000.34,0000.30,0000.33,19.0,25.1,16.1,11.1,0672.9,31.0
2021-07-20T05:28:00Z,00000200,00000000,0001.45,0000.93,0000.65,0000.44,0000.14,0000.60,0000.01,-000.10,0000.32,19.0,25.1,16.1,11.1,0672.9,31.1
2021-07-20T05:29:00Z,00000200,00000000,0001.16,0000.78,0000.59,0000.17,0000.39,0000.21,0000.21,0000.15,-000.06,19.0,25.1,16.1,11.1,0672.9,31.0
2021-07-20T05:30:00Z,00000200,00000000,0001.57,0000.62,0000.47,-000.31,0000.24,0000.26,0000.31,0000.39,0000.29,19.0,25.1,16.1,11.1,0672.9,31.0
2021-07-20T05:31:00Z,00000200,00000000,0001.34,0001.09,0000.79,0000.98,0000.16,0000.11,-000.11,0000.22,0000.18,19.0,25.1,16.0,11.0,0672.9,31.0
2021-07-20T05:32:00Z,00000200,00000000,0001.94,0000.86,0000.61,0000.21,0000.23,0000.41,0000.61,0000.06,0000.04,19.0,25.1,15.9,11.0,0672.9,31.0
2021-07-20T05:33:00Z,00000200,00000000,0001.87,0000.88,0000.54,0000.17,0000.10,0000.15,-000.02,0000.53,0000.26,19.0,25.1,16.0,11.0,0672.9,31.1
2021-07-20T05:34:00Z,00000200,00000000,0001.55,0000.91,0000.67,0000.16,0000.25,0000.14,0000.78,0000.04,-000.08,19.0,25.1,15.9,10.9,0672.9,31.1
2021-07-20T05:35:00Z,00000200,00000000,0002.00,0001.19,0000.39,0000.16,-000.08,0000.35,-000.31,-000.03,0000.56,19.0,25.1,15.9,10.9,0672.9,31.0
2021-07-20T05:36:00Z,00000200,00000000,0000.66,0000.78,0000.39,0000.78,0000.21,0000.07,0000.22,0000.51,-000.28,19.0,25.1,15.6,10.8,0672.9,31.1
2021-07-20T05:37:00Z,00000200,00000000,0001.56,0001.01,0000.58,0000.52,0000.02,0000.06,0000.10,-000.02,0000.08,19.0,25.1,15.8,10.9,0672.9,31.1
2021-07-20T05:38:00Z,00000200,00000000,0001.14,0000.94,0000.59,0000.07,0000.34,0000.31,0000.60,0000.53,0000.25,19.0,25.1,15.6,10.8,0672.9,31.0
2021-07-20T05:39:00Z,00000200,00000000,0001.71,0001.05,0000.39,0000.39,0000.10,0000.36,0000.18,-000.10,0000.13,19.0,25.1,15.6,10.7,0672.9,31.0
2021-07-20T05:40:00Z,00000200,00000000,0001.95,0001.11,0000.87,0000.37,-000.02,0000.08,0000.24,0000.50,0000.41,19.0,25.1,15.4,10.6,0672.9,31.1
2021-07-20T05:41:00Z,00000200,00000000,0001.76,0000.53,0000.54,-000.36,0000.08,0000.20,0000.07,0000.13,0000.03,19.0,25.1,15.5,10.7,0672.9,31.1
2021-07-20T05:42:00Z,00000200,00000000,0002.36,0000.73,0000.29,0000.33,0000.13,0000.13,0000.61,0000.41,0000.24,19.0,25.1,15.4,10.6,0672.9,31.1
2021-07-20T05:43:00Z,00000200,00000000,0000.88,0001.18,0000.28,0000.38,0000.25,0000.42,0000.47,0000.48,0000.21,19.0,25.1,15.6,10.8,0672.9,31.1
2021-07-20T05:44:00Z,00000200,00000000,0001.87,0000.66,0000.55,0000.63,0000.14,0000.20,-000.02,0000.04,0000.57,19.0,25.1,15.7,10.8,0672.9,31.0
2021-07-20T05:45:00Z,00000200,00000000,0001.47,0000.54,0000.48,0000.52,-000.00,0000.45,0000.65,0000.73,0000.21,19.0,25.1,15.8,10.9,0672.8,31.0
2021-07-20T05:46:00Z,00000200,00000000,0001.07,0000.74,0000.42,0000.62,0000.21,0000.47,0000.44,0000.22,0000.26,19.0,25.1,15.8,10.9,0672.9,31.0
2021-07-20T05:47:00Z,00000200,00000000,0001.24,0001.07,0000.23,0000.22,0000.09,0000.03,0000.32,0000.13,0000.34,19.0,25.1,16.0,11.0,0672.8,31.1
2021-07-20T05:48:00Z,00000200,00000000,0001.63,0000.99,0000.51,0000.48,0000.17,0000.51,0000.22,0000.36,0000.19,19.0,25.1,16.0,11.0,0672.8,31.1
2021-07-20T05:49:00Z,00000200,00000000,0001.52,0000.91,0000.70,0000.35,0000.11,0000.46,0000.50,0000.41,0000.34,19.0,25.1,16.1,11.1,0672.8,31.1
2021-07-20T05:50:00Z,00000200,00000000,0001.45,0000.87,0000.52,-000.30,0000.10,0000.07,0000.28,0000.18,0000.10,19.0,25.1,16.2,11.2,0672.8,31.0
2021-07-20T05:51:00Z,00000200,00000000,0001.79,0000.48,0000.58,0000.12,0000.18,-000.05,0000.84,0000.70,0000.35,19.0,25.1,16.4,11.3,0672.8,31.1
2021-07-20T05:52:00Z,00000200,00000000,0000.73,0000.62,0000.57,0000.62,0000.23,0000.10,0000.07,0000.29,0000.66,19.0,25.0,16.4,11.3,0672.8,31.1
2021-07-20T05:53:00Z,00000200,00000000,0000.39,0000.82,0000.61,0000.30,0000.19,0000.29,0000.49,0000.43,0000.12,19.0,25.1,16.5,11.4,0672.8,31.0
2021-07-20T05:54:00Z,00000200,00000000,0001.35,0000.14,0000.14,-000.19,0000.32,0000.15,0000.16,0000.21,0000.28,19.0,25.0,16.7,11.5,0672.8,31.0
2021-07-20T05:55:00Z,00000200,00000000,0001.15,0000.49,0000.49,-000.22,0000.35,-000.03,0000.34,0000.05,-000.07,19.0,25.0,16.8,11.6,0672.8,31.1
2021-07-20T05:56:00Z,00000200,00000000,0001.36,0001.03,0000.52,-000.32,-000.13,0000.12,0000.61,0000.30,0000.59,19.0,25.0,16.9,11.6,0672.8,31.0
2021-07-20T05:57:00Z,00000200,40000000,,,,,,,-000.82,0000.18,-000.55,19.0,25.1,16.8,11.6,0672.8,31.1
2021-07-20T05:58:00Z,00000200,60000000,,,,,,,0000.63,-000.06,0000.49,18.8,25.2,17.0,11.5,0671.8,31.0
2021-07-20T05:59:00Z,00000200,20000000,,,,,,,0000.15,0000.07,0000.23,18.8,25.3,16.9,11.4,0671.7,31.0
